[[{"header":{"parameterUnit":"m.s-1","parameterCategory":1,"la1":30.2992,"la2":30.254,"lo1":-89.0895,"lo2":-89.0443,"dy":0.0025,"dx":0.0025,"nx":19,"ny":19,"refTime":"2026-04-30T03:00:00:Z","depth":0,"parameterNumber":2,"parameterNumberName":"U-component_of_WINDS"},"data":[0,0,0,-1.324,-1.3239,-1.3207,-1.3207,-1.3151,-1.315,0,0,0,0,0,0,0,0,0,0,0,-1.3241,-1.324,-1.324,-1.3239,-1.3207,-1.3207,-1.3151,-1.315,0,0,0,0,0,0,0,0,0,0,0,-1.3241,-1.324,-1.324,-1.3239,-1.3207,-1.3207,-1.3151,-1.318,0,0,0,0,0,0,0,0,0,0,-1.3213,-1.3207,-1.3241,-1.324,-1.3238,-1.3207,-1.3207,-1.3182,-1.3178,-1.3158,0,-1.314,0,-1.3144,-1.3145,-1.3145,0,0,0,-1.3244,-1.3209,-1.3209,-1.3239,-1.3238,-1.3207,-1.3223,-1.318,-1.3176,-1.3154,-1.314,-1.3138,-1.3143,-1.3145,-1.3144,-1.3017,-1.3016,0,0,-1.3246,-1.323,-1.3211,-1.3206,-1.3212,-1.3224,-1.3222,-1.3178,-1.316,-1.314,-1.3137,-1.3143,-1.3144,-1.3144,-1.3018,-1.3017,0,0,0,-1.3247,-1.3231,-1.3232,-1.3208,-1.3203,-1.3223,-1.3221,-1.3162,-1.3164,-1.3136,-1.3142,-1.3144,-1.3143,-1.3019,-1.3018,-1.296,0,0,0,-1.3249,-1.3232,-1.3232,-1.3222,-1.3204,-1.3183,-1.3206,-1.3167,-1.3163,-1.3142,-1.3144,-1.3142,-1.302,-1.3018,-1.2964,-1.2934,0,0,0,-1.3246,-1.3232,-1.3225,-1.3221,-1.3208,-1.3184,-1.3183,-1.3167,-1.3166,-1.3145,-1.3142,-1.3021,-1.3019,-1.2967,-1.294,-1.2895,0,0,0,-1.3237,-1.3173,-1.3223,-1.3154,-1.3208,-1.315,-1.3184,-1.3141,-1.3117,-1.3144,-1.302,-1.3018,-1.2968,-1.2943,-1.2899,-1.2854,-1.2835,0,0,-1.3147,-1.3161,-1.3122,-1.3166,-1.3095,-1.3156,-1.3076,-1.3068,-1.3079,-1.3037,-1.3034,-1.2962,-1.294,-1.2896,-1.2734,-1.2719,0,0,0,-1.3088,-1.3059,-1.3044,-1.3021,-1.3015,-1.3006,-1.3012,-1.3009,-1.2974,-1.3055,-1.2936,-1.2923,-1.2898,-1.2877,-1.2864,-1.2842,-1.3008,-1.3008,-1.3009,-1.2935,-1.2956,-1.2891,-1.2908,-1.2885,-1.2893,-1.2876,-1.2873,-1.2899,-1.2871,-1.2857,-1.2757,-1.2732,-1.2722,-1.27,-1.2837,-1.2837,-1.2837,-1.2837,-1.2803,-1.2765,-1.2804,-1.2755,-1.2776,-1.2735,-1.274,-1.276,-1.2723,-1.2768,-1.2747,-1.2793,-1.2704,-1.2686,-1.2833,-1.2833,-1.2834,-1.2834,-1.2834,-1.2704,-1.2689,-1.2689,-1.2658,-1.2632,-1.2652,-1.2615,-1.2636,-1.2656,-1.2635,-1.2622,-1.2623,-1.2625,-1.2628,-1.2628,-1.2627,-1.2627,-1.2627,-1.2627,-1.2599,-1.2601,-1.2569,-1.2558,-1.2547,-1.2534,-1.2543,-1.2531,-1.2524,-1.2541,-1.2541,-1.2569,-1.2693,-1.2723,-1.2621,-1.2622,-1.2623,-1.2623,-1.2624,-1.2454,-1.2491,-1.2441,-1.2429,-1.2419,-1.2391,-1.242,-1.2395,-1.2389,-1.237,-1.2403,-1.2493,-1.2508,-1.2518,-1.2543,-1.2401,-1.2401,-1.2401,-1.2401,-1.2368,-1.238,-1.2333,-1.2314,-1.2297,-1.2319,-1.2259,-1.2266,-1.2277,-1.2275,-1.2299,-1.2334,-1.2344,-1.2353,-1.2367,-1.239,-1.2213,-1.2212,-1.2212,-1.2279,-1.229,-1.2236,-1.2251,-1.2244,-1.2238,-1.2183,-1.2157,-1.2178,-1.2205,-1.2272,-1.228,-1.2337,-1.2355,-1.238,-1.2401,-1.2444,0,0]},{"header":{"parameterUnit":"m.s-1","parameterCategory":1,"la1":30.2992,"la2":30.254,"lo1":-89.0895,"lo2":-89.0443,"dy":0.0025,"dx":0.0025,"nx":19,"ny":19,"refTime":"2026-04-30T03:00:00:Z","depth":0,"parameterNumber":3,"parameterNumberName":"V-component_of_WINDS"},"data":[0,0,0,2.4644,2.4643,2.4575,2.4574,2.4537,2.4537,0,0,0,0,0,0,0,0,0,0,0,2.4695,2.4696,2.4644,2.4643,2.4575,2.4574,2.4537,2.4537,0,0,0,0,0,0,0,0,0,0,0,2.4695,2.4696,2.4697,2.4643,2.4575,2.4574,2.4537,2.4571,0,0,0,0,0,0,0,0,0,0,2.4628,2.4706,2.4696,2.4697,2.4643,2.4575,2.4574,2.4571,2.4569,2.459,0,2.4617,0,2.4577,2.4538,2.4538,0,0,0,2.462,2.4709,2.4662,2.4697,2.4643,2.4575,2.4599,2.4569,2.4566,2.4587,2.4616,2.4614,2.4577,2.4538,2.4538,2.474,2.4742,0,0,2.4624,2.4699,2.4665,2.4662,2.4676,2.4601,2.4597,2.4566,2.4604,2.4616,2.4612,2.4576,2.4538,2.4538,2.4738,2.4741,0,0,0,2.465,2.4703,2.4656,2.4665,2.4649,2.46,2.4595,2.4605,2.4584,2.4611,2.4576,2.4538,2.4538,2.4736,2.4739,2.4913,0,0,0,2.4651,2.4718,2.4659,2.4705,2.465,2.4626,2.4636,2.4586,2.458,2.4576,2.4538,2.4538,2.4734,2.4738,2.4903,2.4982,0,0,0,2.4689,2.4722,2.4723,2.4709,2.4682,2.4625,2.4601,2.4583,2.456,2.4538,2.4538,2.4732,2.4737,2.4894,2.4967,2.5057,0,0,0,2.4751,2.4878,2.4727,2.4856,2.4683,2.4734,2.46,2.4633,2.4636,2.4538,2.4734,2.4739,2.4892,2.4958,2.5048,2.5145,2.5193,0,0,2.4953,2.4905,2.4975,2.4838,2.4934,2.4738,2.4859,2.4789,2.4718,2.4737,2.4741,2.4906,2.4966,2.5055,2.5437,2.5476,0,0,0,2.5065,2.5116,2.5125,2.5131,2.5082,2.5046,2.495,2.4924,2.4936,2.4744,2.4961,2.4994,2.5043,2.5086,2.5119,2.5156,2.4762,2.4762,2.4761,2.5458,2.5361,2.547,2.5365,2.5374,2.5274,2.5271,2.5219,2.5118,2.5172,2.5176,2.542,2.5473,2.5497,2.5537,2.5221,2.5221,2.5222,2.5222,2.5745,2.5801,2.5666,2.5723,2.562,2.5666,2.5576,2.5504,2.5532,2.5408,2.5446,2.5319,2.5543,2.5572,2.5234,2.5232,2.5231,2.523,2.5229,2.5991,2.6001,2.5969,2.5968,2.598,2.5869,2.5903,2.5808,2.5718,2.5756,2.575,2.5747,2.5731,2.5761,2.5762,2.5762,2.5763,2.5764,2.5764,2.6258,2.6216,2.6256,2.6216,2.6208,2.6186,2.609,2.6079,2.6043,2.597,2.597,2.5864,2.5583,2.5514,2.5777,2.5775,2.5773,2.5772,2.5771,2.6582,2.6494,2.6556,2.6549,2.6495,2.6513,2.6392,2.6379,2.6356,2.6376,2.6263,2.6071,2.6014,2.5987,2.5929,2.6284,2.6284,2.6284,2.6284,2.6788,2.6751,2.6794,2.6788,2.6772,2.667,2.6744,2.6671,2.6581,2.6562,2.6497,2.6412,2.639,2.6346,2.6311,2.6256,2.6685,2.6686,2.6686,2.6981,2.6939,2.702,2.6932,2.6883,2.6844,2.691,2.691,2.679,2.67,2.6544,2.6527,2.6389,2.635,2.6255,2.6204,2.6099,0,0]}]]